Starlink 30376

operational
NORAD ID: 57782 Int'l Des: 2023-134 Owner: SPXS Country: US Constellation: starlink
LEOCIRCULAR

Starlink 30376について

説明を読み込み中...

リアルタイム位置

3D地球を読み込み中...

次回通過

高度履歴

Altitude vs Time

uPlot chart will show altitude changes over time

軌道要素

1 57782U 23134M 25306.31997344 .00021912 00000-0 16354-2 0 9994
2 57782 43.0028 169.4195 0000681 236.5337 123.5441 15.02458247120312
Epoch: Nov 2, 2025 • Age: 18 hours

現在のステータス

高度 563.5 km
速度 7.58 km/s
衛星直下点 -20.68°S, 66.1°W
打ち上げ日 Sep 4, 2023
運用期間 2.1 years
タイプ internet

技術仕様

分類 Payload
質量 730.00 kg
乾燥質量 700.00 kg
総質量 730.00 kg
長さ 0.30 m
直径 4.10 m
スパン 29.00 m
形状 Box + pan
製造者 SPXS
バスタイプ Starlink V2M
フェーズステータス In Orbit
所有者/国 SPXS/US

大規模コンステレーション

Loading constellations...